| time (UTC) | temp C | wind direction | speed KPH | gust KPH | rain 1hr cm | rain 24hr cm | rain mn cm | humidity % | barometer mb |
| 20260831030556 | 14 | 360 | 3.2 | 0.0 | 0.00 | 0.00 | 0.13 | 76 | 1007.7 |
| 20260831030056 | 14 | 360 | 3.2 | 0.0 | 0.00 | 0.00 | 0.13 | 75 | 1007.7 |
| 20260831025552 | 14 | 360 | 3.2 | 0.0 | 0.00 | 0.00 | 0.13 | 75 | 1007.6 |
| 20260831025052 | 14 | 360 | 3.2 | 0.0 | 0.00 | 0.00 | 0.13 | 74 | 1007.4 |
| 20260831024550 | 15 | 360 | 4.8 | 0.0 | 0.00 | 0.00 | 0.13 | 73 | 1007.4 |
| 20260831024048 | 15 | 360 | 6.4 | 0.0 | 0.00 | 0.00 | 0.13 | 73 | 1007.2 |
| 20260831023551 | 15 | 360 | 6.4 | 0.0 | 0.00 | 0.00 | 0.13 | 73 | 1007.2 |
| 20260831023049 | 15 | 360 | 6.4 | 0.0 | 0.00 | 0.00 | 0.13 | 73 | 1007.3 |
| 20260831022548 | 15 | 360 | 6.4 | 0.0 | 0.00 | 0.00 | 0.13 | 73 | 1007.1 |
| 20260831022047 | 15 | 360 | 6.4 | 0.0 | 0.00 | 0.00 | 0.13 | 71 | 1007.1 |
| 20260831021546 | 16 | 360 | 6.4 | 0.0 | 0.00 | 0.00 | 0.13 | 71 | 1007.1 |
| 20260831021046 | 16 | 360 | 8.0 | 0.0 | 0.00 | 0.00 | 0.13 | 70 | 1007.2 |
| 20260831020545 | 16 | 360 | 8.0 | 0.0 | 0.00 | 0.00 | 0.13 | 70 | 1007.0 |
| 20260831020104 | 16 | 360 | 9.7 | 0.0 | 0.00 | 0.00 | 0.13 | 69 | 1006.9 |
| 20260831015545 | 17 | 360 | 11.3 | 0.0 | 0.00 | 0.00 | 0.13 | 69 | 1006.9 |
| 20260831015045 | 17 | 360 | 11.3 | 0.0 | 0.00 | 0.00 | 0.13 | 69 | 1006.7 |
| 20260831014544 | 17 | 360 | 9.7 | 0.0 | 0.00 | 0.00 | 0.13 | 71 | 1006.7 |
| 20260831014044 | 17 | 360 | 8.0 | 0.0 | 0.00 | 0.00 | 0.13 | 71 | 1006.7 |
| 20260831013546 | 18 | 360 | 8.0 | 0.0 | 0.00 | 0.00 | 0.13 | 70 | 1006.8 |
| 20260831013044 | 18 | 360 | 8.0 | 0.0 | 0.00 | 0.00 | 0.13 | 70 | 1006.8 |
| 20260831012544 | 18 | 360 | 8.0 | 0.0 | 0.00 | 0.00 | 0.13 | 69 | 1006.8 |
| 20260831012043 | 18 | 360 | 8.0 | 0.0 | 0.00 | 0.00 | 0.13 | 68 | 1006.6 |
| 20260831011546 | 18 | 360 | 9.7 | 0.0 | 0.00 | 0.00 | 0.13 | 67 | 1006.7 |
| 20260831011043 | 18 | 360 | 11.3 | 0.0 | 0.00 | 0.00 | 0.13 | 67 | 1006.7 |
| 20260831010543 | 19 | 360 | 11.3 | 0.0 | 0.00 | 0.00 | 0.13 | 66 | 1006.7 |
| 20260831010044 | 19 | 360 | 11.3 | 0.0 | 0.00 | 0.00 | 0.13 | 64 | 1006.7 |
| 20260831005543 | 20 | 360 | 11.3 | 0.0 | 0.00 | 0.00 | 0.13 | 63 | 1006.7 |
| 20260831005043 | 20 | 360 | 11.3 | 0.0 | 0.00 | 0.00 | 0.13 | 63 | 1006.7 |
| 20260831004545 | 20 | 287 | 9.7 | 0.0 | 0.00 | 0.00 | 0.13 | 62 | 1006.6 |
| 20260831004043 | 20 | 360 | 8.0 | 0.0 | 0.00 | 0.00 | 0.13 | 62 | 1006.5 |
| 20260831003543 | 20 | 269 | 6.4 | 0.0 | 0.00 | 0.00 | 0.13 | 65 | 1006.3 |
| 20260831003042 | 19 | 360 | 6.4 | 0.0 | 0.00 | 0.00 | 0.13 | 65 | 1006.2 |
| 20260831002542 | 19 | 360 | 4.8 | 0.0 | 0.00 | 0.00 | 0.13 | 66 | 1006.4 |
| 20260831002042 | 18 | 360 | 4.8 | 0.0 | 0.00 | 0.00 | 0.13 | 67 | 1006.4 |
| 20260831001543 | 18 | 360 | 4.8 | 0.0 | 0.00 | 0.00 | 0.13 | 67 | 1006.4 |
| 20260831001045 | 18 | 360 | 6.4 | 0.0 | 0.00 | 0.00 | 0.13 | 67 | 1006.2 |
| 20260831000543 | 18 | 360 | 6.4 | 0.0 | 0.00 | 0.00 | 0.13 | 68 | 1006.0 |
| 20260831000046 | 18 | 360 | 8.0 | 0.0 | 0.00 | 0.00 | 0.13 | 69 | 1006.0 |
| 20260830235542 | 18 | 360 | 8.0 | 0.0 | 0.00 | 0.00 | 0.13 | 70 | 1006.2 |
| 20260830235043 | 18 | 360 | 6.4 | 0.0 | 0.00 | 0.00 | 0.13 | 70 | 1006.3 |
| 20260830234542 | 18 | 360 | 4.8 | 0.0 | 0.00 | 0.00 | 0.13 | 67 | 1005.5 |
| 20260830234043 | 19 | 360 | 6.4 | 0.0 | 0.00 | 0.00 | 0.13 | 65 | 1005.2 |
| 20260830233543 | 19 | 360 | 9.7 | 0.0 | 0.00 | 0.00 | 0.13 | 62 | 1006.7 |
| 20260830233045 | 19 | 360 | 11.3 | 0.0 | 0.00 | 0.00 | 0.13 | 62 | 1006.8 |
| 20260830232543 | 19 | 360 | 9.7 | 0.0 | 0.00 | 0.00 | 0.13 | 62 | 1007.0 |
| 20260830232041 | 19 | 360 | 9.7 | 0.0 | 0.00 | 0.00 | 0.13 | 63 | 1007.0 |
| 20260830231540 | 19 | 360 | 9.7 | 0.0 | 0.00 | 0.00 | 0.13 | 64 | 1007.0 |
| 20260830231039 | 19 | 360 | 9.7 | 0.0 | 0.00 | 0.00 | 0.13 | 64 | 1006.7 |
| 20260830230539 | 19 | 360 | 14.5 | 0.0 | 0.00 | 0.00 | 0.13 | 64 | 1006.4 |
| 20260830230038 | 19 | 360 | 17.7 | 0.0 | 0.00 | 0.00 | 0.13 | 64 | 1006.9 |
| 20260830225538 | 20 | 360 | 17.7 | 0.0 | 0.00 | 0.00 | 0.13 | 65 | 1007.0 |
| 20260830225038 | 20 | 360 | 19.3 | 0.0 | 0.00 | 0.00 | 0.13 | 64 | 1007.1 |
| 20260830224536 | 20 | 360 | 20.9 | 0.0 | 0.00 | 0.00 | 0.13 | 63 | 1006.7 |
| 20260830224037 | 20 | 360 | 25.7 | 0.0 | 0.00 | 0.00 | 0.13 | 63 | 1006.6 |
| 20260830223537 | 20 | 360 | 27.4 | 0.0 | 0.00 | 0.00 | 0.13 | 64 | 1006.6 |
| 20260830223036 | 20 | 360 | 25.7 | 0.0 | 0.00 | 0.00 | 0.13 | 63 | 1006.5 |
| 20260830222537 | 20 | 360 | 24.1 | 0.0 | 0.00 | 0.00 | 0.13 | 61 | 1005.9 |
| 20260830222033 | 20 | 360 | 25.7 | 0.0 | 0.00 | 0.00 | 0.13 | 61 | 1005.6 |
| 20260830221538 | 21 | 360 | 27.4 | 0.0 | 0.00 | 0.00 | 0.13 | 59 | 1005.6 |
| 20260830221031 | 20 | 360 | 30.6 | 0.0 | 0.00 | 0.00 | 0.13 | 62 | 1005.6 |
| 20260830220531 | 20 | 360 | 32.2 | 0.0 | 0.00 | 0.00 | 0.13 | 62 | 1005.2 |
| 20260830220030 | 20 | 360 | 32.2 | 0.0 | 0.00 | 0.00 | 0.13 | 61 | 1004.9 |
| 20260830215530 | 20 | 360 | 32.2 | 0.0 | 0.00 | 0.00 | 0.13 | 61 | 1004.6 |
| 20260830215030 | 20 | 360 | 33.8 | 0.0 | 0.00 | 0.00 | 0.13 | 64 | 1004.6 |
| 20260830214528 | 20 | 360 | 33.8 | 0.0 | 0.00 | 0.00 | 0.13 | 64 | 1004.6 |
| 20260830214029 | 20 | 360 | 30.6 | 0.0 | 0.00 | 0.00 | 0.13 | 70 | 1004.7 |
| 20260830213529 | 18 | 360 | 29.0 | 0.0 | 0.00 | 0.00 | 0.13 | 81 | 1004.7 |
| 20260830213035 | 18 | 360 | 27.4 | 0.0 | 0.00 | 0.00 | 0.13 | 81 | 1004.7 |
| 20260830212529 | 18 | 360 | 27.4 | 0.0 | 0.00 | 0.00 | 0.13 | 80 | 1005.1 |
| 20260830212028 | 20 | 360 | 25.7 | 0.0 | 0.00 | 0.00 | 0.13 | 77 | 1005.1 |
| 20260830211528 | 21 | 360 | 22.5 | 0.0 | 0.00 | 0.00 | 0.13 | 72 | 1005.0 |
| 20260830211031 | 22 | 360 | 19.3 | 0.0 | 0.00 | 0.00 | 0.13 | 68 | 1004.9 |
| 20260830210527 | 22 | 360 | 19.3 | 0.0 | 0.00 | 0.00 | 0.13 | 70 | 1004.8 |
| 20260830210027 | 21 | 360 | 20.9 | 0.0 | 0.00 | 0.00 | 0.13 | 70 | 1004.3 |
| 20260830205527 | 22 | 298 | 19.3 | 0.0 | 0.00 | 0.00 | 0.13 | 67 | 1004.0 |
| 20260830205027 | 22 | 284 | 19.3 | 0.0 | 0.00 | 0.00 | 0.13 | 66 | 1004.2 |
| 20260830204526 | 22 | 283 | 22.5 | 0.0 | 0.00 | 0.00 | 0.13 | 67 | 1004.2 |
| 20260830204026 | 22 | 294 | 20.9 | 0.0 | 0.00 | 0.00 | 0.13 | 66 | 1003.9 |
| 20260830203526 | 22 | 296 | 19.3 | 0.0 | 0.00 | 0.00 | 0.13 | 68 | 1003.8 |
| 20260830203026 | 22 | 300 | 19.3 | 0.0 | 0.00 | 0.00 | 0.13 | 67 | 1003.9 |
| 20260830202526 | 22 | 360 | 19.3 | 0.0 | 0.00 | 0.00 | 0.13 | 67 | 1003.8 |
| 20260830202026 | 22 | 360 | 20.9 | 0.0 | 0.00 | 0.00 | 0.13 | 67 | 1003.8 |
| 20260830201526 | 23 | 290 | 22.5 | 0.0 | 0.00 | 0.00 | 0.13 | 66 | 1003.8 |
| 20260830201027 | 23 | 281 | 22.5 | 0.0 | 0.00 | 0.00 | 0.13 | 65 | 1003.8 |
| 20260830200525 | 24 | 270 | 25.7 | 0.0 | 0.00 | 0.00 | 0.13 | 63 | 1003.8 |
| 20260830200025 | 25 | 285 | 25.7 | 0.0 | 0.00 | 0.00 | 0.13 | 63 | 1003.8 |
| 20260830195525 | 25 | 360 | 25.7 | 0.0 | 0.00 | 0.00 | 0.13 | 63 | 1003.8 |
| 20260830195025 | 25 | 268 | 27.4 | 0.0 | 0.00 | 0.00 | 0.13 | 63 | 1003.8 |
| 20260830194525 | 25 | 280 | 27.4 | 0.0 | 0.00 | 0.00 | 0.13 | 64 | 1003.8 |
| 20260830194025 | 25 | 282 | 25.7 | 0.0 | 0.00 | 0.00 | 0.13 | 66 | 1003.7 |
| 20260830193526 | 25 | 277 | 22.5 | 0.0 | 0.00 | 0.00 | 0.13 | 68 | 1003.7 |
| 20260830193024 | 25 | 303 | 20.9 | 0.0 | 0.00 | 0.00 | 0.13 | 69 | 1003.6 |
| 20260830192523 | 24 | 286 | 19.3 | 0.0 | 0.00 | 0.00 | 0.13 | 69 | 1003.8 |
| 20260830192027 | 24 | 292 | 20.9 | 0.0 | 0.00 | 0.00 | 0.13 | 69 | 1003.7 |
| 20260830191528 | 25 | 274 | 20.9 | 0.0 | 0.00 | 0.00 | 0.13 | 69 | 1003.6 |
| 20260830191023 | 25 | 310 | 22.5 | 0.0 | 0.00 | 0.00 | 0.13 | 67 | 1003.5 |
| 20260830190523 | 26 | 290 | 20.9 | 0.0 | 0.00 | 0.00 | 0.13 | 66 | 1003.4 |
| 20260830190025 | 26 | 332 | 19.3 | 0.0 | 0.00 | 0.00 | 0.13 | 66 | 1003.3 |
| 20260830185525 | 26 | 277 | 20.9 | 0.0 | 0.00 | 0.00 | 0.13 | 65 | 1003.3 |
| 20260830185022 | 26 | 360 | 20.9 | 0.0 | 0.00 | 0.00 | 0.13 | 64 | 1003.3 |
| 20260830184523 | 26 | 271 | 19.3 | 0.0 | 0.00 | 0.00 | 0.13 | 66 | 1003.3 |
| 20260830184022 | 25 | 279 | 16.1 | 0.0 | 0.00 | 0.00 | 0.13 | 67 | 1003.4 |
| 20260830183523 | 25 | 281 | 14.5 | 0.0 | 0.00 | 0.00 | 0.13 | 67 | 1003.4 |
| 20260830183024 | 25 | 291 | 14.5 | 0.0 | 0.00 | 0.00 | 0.13 | 68 | 1003.5 |
| 20260830182527 | 25 | 309 | 12.9 | 0.0 | 0.00 | 0.00 | 0.13 | 68 | 1003.3 |
| 20260830182026 | 26 | 351 | 12.9 | 0.0 | 0.00 | 0.00 | 0.13 | 65 | 1003.1 |
| 20260830181524 | 26 | 305 | 12.9 | 0.0 | 0.00 | 0.00 | 0.13 | 65 | 1003.0 |
| 20260830181030 | 26 | 305 | 11.3 | 0.0 | 0.00 | 0.00 | 0.13 | 66 | 1003.0 |
| 20260830180524 | 26 | 322 | 11.3 | 0.0 | 0.00 | 0.00 | 0.13 | 66 | 1003.2 |
| 20260830180023 | 26 | 313 | 11.3 | 0.0 | 0.00 | 0.00 | 0.13 | 66 | 1003.2 |
| 20260830175523 | 26 | 329 | 11.3 | 0.0 | 0.00 | 0.00 | 0.13 | 65 | 1003.1 |
| 20260830175022 | 26 | 334 | 12.9 | 0.0 | 0.00 | 0.00 | 0.13 | 67 | 1003.2 |
| 20260830174525 | 26 | 310 | 12.9 | 0.0 | 0.00 | 0.00 | 0.13 | 66 | 1003.2 |
| 20260830174022 | 26 | 325 | 12.9 | 0.0 | 0.00 | 0.00 | 0.13 | 65 | 1003.2 |
| 20260830173522 | 26 | 305 | 14.5 | 0.0 | 0.00 | 0.00 | 0.13 | 66 | 1003.4 |
| 20260830173020 | 25 | 332 | 14.5 | 0.0 | 0.00 | 0.00 | 0.13 | 67 | 1003.3 |
| 20260830172520 | 25 | 296 | 14.5 | 0.0 | 0.00 | 0.00 | 0.13 | 67 | 1003.3 |
| 20260830172020 | 25 | 275 | 12.9 | 0.0 | 0.00 | 0.00 | 0.13 | 66 | 1003.3 |
| 20260830171520 | 25 | 315 | 12.9 | 0.0 | 0.00 | 0.00 | 0.13 | 67 | 1003.2 |
| 20260830171021 | 25 | 279 | 12.9 | 0.0 | 0.00 | 0.00 | 0.13 | 66 | 1003.2 |
| 20260830170523 | 25 | 290 | 14.5 | 0.0 | 0.00 | 0.00 | 0.13 | 65 | 1003.1 |
| 20260830170037 | 26 | 293 | 16.1 | 0.0 | 0.00 | 0.00 | 0.13 | 66 | 1003.1 |
| 20260830165520 | 26 | 300 | 16.1 | 0.0 | 0.00 | 0.00 | 0.13 | 66 | 1003.0 |
| 20260830165023 | 26 | 323 | 14.5 | 0.0 | 0.00 | 0.00 | 0.13 | 65 | 1002.9 |
| 20260830164520 | 26 | 300 | 9.7 | 0.0 | 0.00 | 0.00 | 0.13 | 64 | 1002.9 |
| 20260830164020 | 26 | 285 | 8.0 | 0.0 | 0.00 | 0.00 | 0.13 | 61 | 1002.8 |
| 20260830163517 | 25 | 360 | 8.0 | 0.0 | 0.00 | 0.00 | 0.13 | 62 | 1002.9 |
| 20260830163017 | 25 | 360 | 6.4 | 0.0 | 0.00 | 0.00 | 0.13 | 63 | 1002.9 |
| 20260830162517 | 25 | 360 | 6.4 | 0.0 | 0.00 | 0.00 | 0.13 | 66 | 1002.9 |
| 20260830162017 | 25 | 360 | 8.0 | 0.0 | 0.00 | 0.00 | 0.13 | 66 | 1002.9 |
| 20260830161515 | 25 | 360 | 8.0 | 0.0 | 0.00 | 0.00 | 0.13 | 67 | 1003.0 |
| 20260830161014 | 25 | 360 | 8.0 | 0.0 | 0.00 | 0.00 | 0.13 | 67 | 1003.1 |
| 20260830160511 | 24 | 191 | 6.4 | 0.0 | 0.00 | 0.00 | 0.13 | 71 | 1003.1 |
| 20260830160010 | 24 | 360 | 6.4 | 0.0 | 0.00 | 0.00 | 0.13 | 73 | 1003.3 |
| 20260830155509 | 23 | 360 | 8.0 | 0.0 | 0.00 | 0.00 | 0.13 | 74 | 1003.3 |
| 20260830155010 | 23 | 360 | 8.0 | 0.0 | 0.00 | 0.00 | 0.13 | 75 | 1003.3 |
| 20260830154507 | 23 | 161 | 9.7 | 0.0 | 0.00 | 0.00 | 0.13 | 76 | 1003.2 |
| 20260830154006 | 23 | 184 | 8.0 | 0.0 | 0.00 | 0.00 | 0.13 | 77 | 1003.2 |
| 20260830153510 | 23 | 360 | 8.0 | 0.0 | 0.00 | 0.00 | 0.13 | 80 | 1003.0 |
| 20260830153005 | 23 | 178 | 8.0 | 0.0 | 0.00 | 0.00 | 0.13 | 80 | 1003.0 |
| 20260830152505 | 22 | 165 | 9.7 | 0.0 | 0.00 | 0.00 | 0.13 | 80 | 1003.1 |
| 20260830152004 | 22 | 360 | 9.7 | 0.0 | 0.00 | 0.00 | 0.13 | 80 | 1003.1 |
| 20260830151502 | 22 | 167 | 8.0 | 0.0 | 0.00 | 0.00 | 0.13 | 81 | 1003.1 |
| 20260830151100 | 22 | 360 | 8.0 | 0.0 | 0.00 | 0.00 | 0.13 | 81 | 1003.2 |
| 20260830151002 | 22 | 129 | 8.0 | 0.0 | 0.00 | 0.00 | 0.13 | 82 | 1003.2 |
| 20260830150600 | 22 | 360 | 9.7 | 0.0 | 0.00 | 0.00 | 0.13 | 82 | 1003.4 |
| 20260830145558 | 21 | 360 | 9.7 | 0.0 | 0.00 | 0.00 | 0.13 | 83 | 1003.4 |
| 20260830145057 | 21 | 360 | 11.3 | 0.0 | 0.00 | 0.00 | 0.13 | 82 | 1003.3 |
| 20260830144558 | 21 | 360 | 11.3 | 0.0 | 0.00 | 0.00 | 0.13 | 83 | 1003.3 |
| 20260830144058 | 21 | 360 | 11.3 | 0.0 | 0.00 | 0.00 | 0.13 | 83 | 1003.3 |
| 20260830143554 | 21 | 360 | 11.3 | 0.0 | 0.00 | 0.00 | 0.13 | 83 | 1003.2 |
| 20260830142554 | 20 | 135 | 8.0 | 0.0 | 0.00 | 0.00 | 0.13 | 83 | 1003.4 |
| 20260830142053 | 20 | 360 | 8.0 | 0.0 | 0.00 | 0.00 | 0.13 | 83 | 1003.5 |
| 20260830141553 | 20 | 360 | 8.0 | 0.0 | 0.00 | 0.00 | 0.13 | 83 | 1003.5 |
| 20260830141053 | 20 | 360 | 8.0 | 0.0 | 0.00 | 0.00 | 0.13 | 82 | 1003.6 |
| 20260830140552 | 20 | 360 | 8.0 | 0.0 | 0.00 | 0.00 | 0.13 | 84 | 1003.6 |
| 20260830135552 | 20 | 360 | 9.7 | 0.0 | 0.00 | 0.00 | 0.13 | 86 | 1003.5 |
| 20260830135052 | 19 | 360 | 8.0 | 0.0 | 0.00 | 0.00 | 0.13 | 86 | 1003.6 |
| 20260830134556 | 19 | 360 | 6.4 | 0.0 | 0.00 | 0.00 | 0.13 | 87 | 1003.6 |
| 20260830134051 | 18 | 360 | 1.6 | 0.0 | 0.00 | 0.00 | 0.13 | 88 | 1003.7 |
| 20260830133550 | 17 | 360 | 0.0 | 0.0 | 0.00 | 0.00 | 0.13 | 88 | 1003.6 |
| 20260830132552 | 17 | 360 | 0.0 | 0.0 | 0.00 | 0.00 | 0.13 | 87 | 1003.8 |
| 20260830132055 | 17 | 360 | 0.0 | 0.0 | 0.00 | 0.00 | 0.13 | 87 | 1003.7 |
| 20260830131558 | 17 | 360 | 0.0 | 0.0 | 0.00 | 0.00 | 0.13 | 87 | 1003.6 |
| 20260830131051 | 16 | 360 | 0.0 | 0.0 | 0.00 | 0.00 | 0.13 | 87 | 1003.6 |
| 20260830130553 | 16 | 360 | 0.0 | 0.0 | 0.00 | 0.00 | 0.13 | 87 | 1003.5 |
| 20260830130053 | 16 | 360 | 1.6 | 0.0 | 0.00 | 0.00 | 0.13 | 86 | 1003.6 |
| 20260830125551 | 16 | 360 | 3.2 | 0.0 | 0.00 | 0.00 | 0.13 | 86 | 1003.6 |
| 20260830125050 | 16 | 360 | 4.8 | 0.0 | 0.00 | 0.00 | 0.13 | 86 | 1003.7 |
| 20260830124551 | 16 | 360 | 4.8 | 0.0 | 0.00 | 0.00 | 0.13 | 87 | 1003.7 |
| 20260830124050 | 16 | 360 | 3.2 | 0.0 | 0.00 | 0.00 | 0.13 | 87 | 1003.6 |
| 20260830123551 | 16 | 360 | 0.0 | 0.0 | 0.00 | 0.00 | 0.13 | 87 | 1003.7 |
| 20260830122550 | 16 | 360 | 0.0 | 0.0 | 0.00 | 0.00 | 0.13 | 88 | 1003.6 |
| 20260830122049 | 16 | 360 | 0.0 | 0.0 | 0.00 | 0.00 | 0.13 | 87 | 1003.6 |
| 20260830121547 | 16 | 360 | 0.0 | 0.0 | 0.00 | 0.00 | 0.13 | 86 | 1003.9 |
| 20260830121046 | 16 | 360 | 0.0 | 0.0 | 0.00 | 0.00 | 0.13 | 87 | 1004.0 |
| 20260830120545 | 16 | 360 | 0.0 | 0.0 | 0.00 | 0.00 | 0.13 | 86 | 1004.0 |
| 20260830120044 | 16 | 360 | 1.6 | 0.0 | 0.00 | 0.00 | 0.13 | 86 | 1004.0 |
| 20260830115544 | 17 | 360 | 3.2 | 0.0 | 0.00 | 0.00 | 0.13 | 86 | 1004.0 |
| 20260830115044 | 17 | 360 | 3.2 | 0.0 | 0.00 | 0.00 | 0.13 | 86 | 1004.0 |
| 20260830114552 | 17 | 360 | 3.2 | 0.0 | 0.00 | 0.00 | 0.13 | 87 | 1004.0 |
| 20260830114044 | 17 | 360 | 3.2 | 0.0 | 0.00 | 0.00 | 0.13 | 86 | 1004.1 |
| 20260830113543 | 17 | 360 | 4.8 | 0.0 | 0.00 | 0.00 | 0.13 | 87 | 1004.1 |
| 20260830112545 | 17 | 360 | 8.0 | 0.0 | 0.00 | 0.00 | 0.13 | 87 | 1004.1 |
| 20260830112045 | 17 | 360 | 9.7 | 0.0 | 0.00 | 0.00 | 0.13 | 86 | 1004.0 |
| 20260830111546 | 17 | 360 | 11.3 | 0.0 | 0.00 | 0.00 | 0.13 | 86 | 1004.0 |
| 20260830111047 | 17 | 360 | 11.3 | 0.0 | 0.00 | 0.00 | 0.13 | 86 | 1004.0 |
| 20260830110546 | 17 | 360 | 12.9 | 0.0 | 0.00 | 0.00 | 0.13 | 86 | 1004.0 |
| 20260830110046 | 17 | 360 | 11.3 | 0.0 | 0.00 | 0.00 | 0.13 | 86 | 1004.0 |
| 20260830105546 | 17 | 360 | 9.7 | 0.0 | 0.00 | 0.00 | 0.13 | 85 | 1004.0 |
| 20260830105045 | 17 | 360 | 9.7 | 0.0 | 0.00 | 0.00 | 0.13 | 85 | 1004.0 |
| 20260830104549 | 17 | 360 | 11.3 | 0.0 | 0.00 | 0.00 | 0.13 | 85 | 1003.9 |
| 20260830104044 | 17 | 360 | 12.9 | 0.0 | 0.00 | 0.00 | 0.13 | 84 | 1004.1 |
| 20260830103544 | 17 | 360 | 12.9 | 0.0 | 0.00 | 0.00 | 0.13 | 84 | 1004.0 |
| 20260830102543 | 17 | 360 | 11.3 | 0.0 | 0.00 | 0.00 | 0.13 | 85 | 1004.1 |
| 20260830102044 | 17 | 360 | 9.7 | 0.0 | 0.00 | 0.00 | 0.13 | 85 | 1004.0 |
| 20260830101543 | 17 | 360 | 11.3 | 0.0 | 0.00 | 0.00 | 0.13 | 84 | 1004.1 |
| 20260830101043 | 17 | 360 | 11.3 | 0.0 | 0.00 | 0.00 | 0.13 | 83 | 1004.2 |
| 20260830100545 | 17 | 360 | 12.9 | 0.0 | 0.00 | 0.00 | 0.13 | 82 | 1004.1 |
| 20260830100043 | 17 | 360 | 12.9 | 0.0 | 0.00 | 0.00 | 0.13 | 81 | 1004.1 |
| 20260830095544 | 17 | 360 | 12.9 | 0.0 | 0.00 | 0.00 | 0.13 | 81 | 1004.1 |
| 20260830095043 | 17 | 360 | 11.3 | 0.0 | 0.00 | 0.00 | 0.13 | 82 | 1004.1 |
| 20260830094543 | 17 | 360 | 11.3 | 0.0 | 0.00 | 0.00 | 0.13 | 82 | 1004.1 |
| 20260830094042 | 17 | 360 | 14.5 | 0.0 | 0.00 | 0.00 | 0.13 | 82 | 1004.1 |
| 20260830093545 | 17 | 360 | 16.1 | 0.0 | 0.00 | 0.00 | 0.13 | 82 | 1004.2 |
| 20260830092543 | 17 | 360 | 16.1 | 0.0 | 0.00 | 0.00 | 0.13 | 82 | 1004.3 |
| 20260830092040 | 17 | 360 | 16.1 | 0.0 | 0.00 | 0.00 | 0.13 | 82 | 1004.5 |
| 20260830091540 | 17 | 360 | 19.3 | 0.0 | 0.00 | 0.00 | 0.13 | 82 | 1004.4 |
| 20260830091040 | 17 | 360 | 19.3 | 0.0 | 0.00 | 0.00 | 0.13 | 84 | 1004.4 |
| 20260830090540 | 17 | 360 | 17.7 | 0.0 | 0.00 | 0.00 | 0.13 | 85 | 1004.5 |
| 20260830090039 | 17 | 360 | 17.7 | 0.0 | 0.00 | 0.00 | 0.13 | 85 | 1004.5 |
| 20260830085538 | 17 | 360 | 19.3 | 0.0 | 0.00 | 0.00 | 0.13 | 85 | 1004.6 |
| 20260830085038 | 17 | 360 | 20.9 | 0.0 | 0.00 | 0.00 | 0.13 | 84 | 1004.6 |
| 20260830084542 | 17 | 360 | 20.9 | 0.0 | 0.00 | 0.00 | 0.13 | 84 | 1004.7 |
| 20260830084039 | 17 | 360 | 24.1 | 0.0 | 0.00 | 0.00 | 0.13 | 83 | 1004.7 |
| 20260830083536 | 17 | 360 | 22.5 | 0.0 | 0.00 | 0.00 | 0.13 | 83 | 1004.6 |
| 20260830082536 | 18 | 360 | 17.7 | 0.0 | 0.00 | 0.00 | 0.13 | 81 | 1004.6 |
| 20260830082035 | 18 | 360 | 16.1 | 0.0 | 0.00 | 0.00 | 0.13 | 82 | 1004.3 |
| 20260830081535 | 18 | 360 | 14.5 | 0.0 | 0.00 | 0.00 | 0.13 | 83 | 1004.5 |
| 20260830081037 | 18 | 360 | 14.5 | 0.0 | 0.00 | 0.00 | 0.13 | 83 | 1004.2 |
| 20260830080533 | 18 | 360 | 12.9 | 0.0 | 0.00 | 0.00 | 0.13 | 84 | 1004.5 |
| 20260830080033 | 18 | 360 | 12.9 | 0.0 | 0.00 | 0.00 | 0.13 | 83 | 1004.5 |
| 20260830075532 | 18 | 360 | 17.7 | 0.0 | 0.00 | 0.00 | 0.13 | 82 | 1004.3 |
| 20260830075032 | 19 | 360 | 19.3 | 0.0 | 0.00 | 0.00 | 0.10 | 81 | 1004.7 |
| 20260830074529 | 20 | 360 | 16.1 | 0.0 | 0.00 | 0.00 | 0.03 | 82 | 1004.7 |
| 20260830074031 | 20 | 360 | 12.9 | 0.0 | 0.00 | 0.00 | 0.00 | 86 | 1004.7 |
| 20260830073526 | 20 | 360 | 12.9 | 0.0 | 0.00 | 0.00 | 0.00 | 87 | 1004.6 |
| 20260830072528 | 20 | 360 | 12.9 | 0.0 | 0.00 | 0.00 | 0.00 | 85 | 1004.7 |
| 20260830072025 | 20 | 360 | 11.3 | 0.0 | 0.00 | 0.00 | 0.00 | 86 | 1004.8 |
| 20260830071525 | 20 | 360 | 11.3 | 0.0 | 0.00 | 0.00 | 0.00 | 86 | 1004.7 |
| 20260830071029 | 20 | 360 | 14.5 | 0.0 | 0.00 | 0.00 | 0.00 | 84 | 1004.8 |
| 20260830070524 | 20 | 360 | 12.9 | 0.0 | 0.00 | 0.00 | 0.00 | 81 | 1004.9 |
| 20260830070024 | 21 | 360 | 11.3 | 0.0 | 0.00 | 0.00 | 0.00 | 86 | 1005.1 |
| 20260830065523 | 21 | 360 | 9.7 | 0.0 | 0.00 | 0.00 | 0.00 | 86 | 1005.0 |
| 20260830065023 | 21 | 360 | 9.7 | 0.0 | 0.00 | 0.00 | 0.00 | 85 | 1004.9 |
| 20260830064524 | 21 | 360 | 9.7 | 0.0 | 0.00 | 0.00 | 0.00 | 85 | 1004.6 |
| 20260830064023 | 21 | 360 | 8.0 | 0.0 | 0.00 | 0.00 | 0.00 | 84 | 1004.8 |
| 20260830063522 | 21 | 360 | 6.4 | 0.0 | 0.00 | 0.00 | 0.00 | 84 | 1005.1 |
| 20260830062523 | 22 | 360 | 12.9 | 0.0 | 0.00 | 0.00 | 0.00 | 81 | 1005.1 |
| 20260830062021 | 22 | 360 | 14.5 | 0.0 | 0.00 | 0.00 | 0.00 | 79 | 1005.1 |
| 20260830061523 | 23 | 360 | 14.5 | 0.0 | 0.00 | 0.00 | 0.00 | 76 | 1005.0 |
| 20260830061021 | 23 | 360 | 14.5 | 0.0 | 0.00 | 0.00 | 0.00 | 74 | 1005.1 |
| 20260830060521 | 23 | 360 | 12.9 | 0.0 | 0.00 | 0.00 | 0.00 | 74 | 1004.9 |
| 20260830060020 | 23 | 360 | 14.5 | 0.0 | 0.00 | 0.00 | 0.00 | 73 | 1005.1 |
| 20260830055524 | 23 | 95 | 14.5 | 0.0 | 0.00 | 0.00 | 0.00 | 71 | 1005.1 |
| 20260830055020 | 23 | 103 | 14.5 | 0.0 | 0.00 | 0.00 | 0.00 | 70 | 1005.0 |
| 20260830054519 | 23 | 360 | 14.5 | 0.0 | 0.00 | 0.00 | 0.00 | 69 | 1005.0 |
| 20260830054020 | 23 | 94 | 14.5 | 0.0 | 0.00 | 0.00 | 0.00 | 67 | 1005.0 |
| 20260830053520 | 23 | 360 | 16.1 | 0.0 | 0.00 | 0.00 | 0.00 | 67 | 1005.1 |
| 20260830052519 | 23 | 360 | 19.3 | 0.0 | 0.00 | 0.00 | 0.00 | 65 | 1005.1 |
| 20260830052019 | 24 | 360 | 17.7 | 0.0 | 0.00 | 0.00 | 0.00 | 64 | 1005.0 |
| 20260830051519 | 24 | 360 | 16.1 | 0.0 | 0.00 | 0.00 | 0.00 | 63 | 1005.2 |
| 20260830051019 | 25 | 360 | 16.1 | 0.0 | 0.00 | 0.00 | 0.00 | 62 | 1005.2 |
| 20260830050518 | 25 | 360 | 14.5 | 0.0 | 0.00 | 0.00 | 0.00 | 60 | 1005.2 |
| 20260830050019 | 24 | 360 | 11.3 | 0.0 | 0.00 | 0.00 | 0.00 | 53 | 1005.2 |
| 20260830045517 | 24 | 360 | 9.7 | 0.0 | 0.00 | 0.00 | 0.00 | 49 | 1005.2 |
| 20260830045018 | 23 | 360 | 8.0 | 0.0 | 0.00 | 0.00 | 0.00 | 47 | 1005.3 |
| 20260830044518 | 23 | 360 | 8.0 | 0.0 | 0.00 | 0.00 | 0.00 | 47 | 1005.2 |
| 20260830044018 | 23 | 360 | 8.0 | 0.0 | 0.00 | 0.00 | 0.00 | 47 | 1005.2 |
| 20260830043519 | 24 | 360 | 8.0 | 0.0 | 0.00 | 0.00 | 0.00 | 46 | 1005.2 |
| 20260830042516 | 23 | 360 | 6.4 | 0.0 | 0.00 | 0.00 | 0.00 | 46 | 1005.1 |
| 20260830042020 | 23 | 360 | 6.4 | 0.0 | 0.00 | 0.00 | 0.00 | 46 | 1005.1 |
| 20260830041516 | 23 | 360 | 4.8 | 0.0 | 0.00 | 0.00 | 0.00 | 47 | 1005.1 |
| 20260830041015 | 23 | 360 | 3.2 | 0.0 | 0.00 | 0.00 | 0.00 | 47 | 1005.1 |
| 20260830040515 | 23 | 360 | 4.8 | 0.0 | 0.00 | 0.00 | 0.00 | 47 | 1004.9 |
| 20260830040015 | 23 | 360 | 6.4 | 0.0 | 0.00 | 0.00 | 0.00 | 47 | 1004.9 |
| 20260830035515 | 23 | 360 | 8.0 | 0.0 | 0.00 | 0.00 | 0.00 | 47 | 1005.0 |
| 20260830035015 | 24 | 360 | 6.4 | 0.0 | 0.00 | 0.00 | 0.00 | 46 | 1004.9 |
| 20260830034515 | 23 | 360 | 6.4 | 0.0 | 0.00 | 0.00 | 0.00 | 46 | 1004.9 |
| 20260830034019 | 23 | 360 | 8.0 | 0.0 | 0.00 | 0.00 | 0.00 | 47 | 1005.0 |
| 20260830033517 | 23 | 360 | 6.4 | 0.0 | 0.00 | 0.00 | 0.00 | 47 | 1004.9 |
| 20260830032514 | 23 | 360 | 4.8 | 0.0 | 0.00 | 0.00 | 0.00 | 49 | 1005.0 |
| 20260830032014 | 23 | 360 | 6.4 | 0.0 | 0.00 | 0.00 | 0.00 | 53 | 1004.9 |
| 20260830031515 | 25 | 360 | 4.8 | 0.0 | 0.00 | 0.00 | 0.00 | 49 | 1004.9 |
| 20260830031018 | 25 | 74 | 4.8 | 0.0 | 0.00 | 0.00 | 0.00 | 45 | 1005.1 |